This demonstration page uses our WeatherBlox Daily Observations layout. Learn more.

Left ArrowRight Arrow

40.97296, -117.73568

Hourly Observations for August 3, 2022

Temp ( °F °C ) Dew Point ( °F °C ) Humidity (%) Winds ( mph kmh ) Pressure ( in mb ) Visibility ( mi km ) Precip ( " mm )
12:56 am 00:56 Clear 66 18.9 53 11.7 63 63 WNW 6 9 30.00 1016 10 16 0.00 0.00
1:56 am 01:56 Clear 65 18.3 53 11.7 66 66 E 3 6 30.00 1016 10 16 0.00 0.00
2:56 am 02:56 Clear 67 19.4 54 12.2 63 63 Calm 29.99 1016 10 16 0.00 0.00
3:56 am 03:56 Clear 65 18.3 52 11.1 63 63 Calm 29.99 1016 10 16 0.00 0.00
4:56 am 04:56 Clear 61 16.1 53 11.7 75 75 S 5 7 30.00 1016 10 16 0.00 0.00
5:56 am 05:56 Sunny 60 15.6 53 11.7 78 78 SSE 6 9 30.01 1016 10 16 0.00 0.00
6:56 am 06:56 Sunny 67 19.4 54 12.2 63 63 Calm 30.03 1017 10 16 0.00 0.00
7:56 am 07:56 Sunny 72 22.2 54 12.2 53 53 E 3 6 30.03 1017 10 16 0.00 0.00
8:56 am 08:56 Sunny 78 25.6 55 12.8 45 45 ENE 3 6 30.01 1016 10 16 0.00 0.00
9:56 am 09:56 Sunny 83 28.3 53 11.7 36 36 N 5 7 30.00 1016 10 16 0.00 0.00
10:56 am 10:56 Sunny 87 30.6 51 10.6 29 29 undefined N/A 29.98 1015 10 16 0.00 0.00
11:56 am 11:56 Sunny 90 32.2 49 9.4 24 24 undefined N/A 29.96 1014 10 16 0.00 0.00
12:56 pm 12:56 Sunny 91 32.8 48 8.9 23 23 VRB 6 9 29.94 1014 10 16 0.00 0.00
1:56 pm 13:56 Sunny 94 34.4 46 7.8 19 19 VRB 6 9 29.91 1013 10 16 0.00 0.00
2:56 pm 14:56 Partly Cloudy 96 35.6 47 8.3 19 19 NW 9 15 29.89 1012 10 16 0.00 0.00
3:56 pm 15:56 Partly Cloudy 95 35 45 7.2 18 18 NNE 10 17 29.87 1012 10 16 0.00 0.00
4:56 pm 16:56 Sunny 96 35.6 45 7.2 17 17 WNW 5 7 29.85 1011 10 16 0.00 0.00
5:56 pm 17:56 Sunny 95 35 45 7.2 18 18 W 8 13 29.84 1011 10 16 0.00 0.00
6:56 pm 18:56 Sunny 95 35 46 7.8 19 19 NE 3 6 29.82 1010 10 16 0.00 0.00
7:56 pm 19:56 Sunny 90 32.2 46 7.8 22 22 N 3 6 29.83 1010 10 16 0.00 0.00
8:56 pm 20:56 Clear 77 25 45 7.2 32 32 SSE 6 9 29.85 1011 10 16 0.00 0.00
9:56 pm 21:56 Clear 74 23.3 45 7.2 36 36 SE 5 7 29.86 1011 10 16 0.00 0.00
10:56 pm 22:56 Clear 77 25 47 8.3 35 35 SE 3 6 29.85 1011 10 16 0.00 0.00
11:56 pm 23:56 Mostly Cloudy with Haze 81 27.2 50 10 34 34 SE 17 28 29.84 1011 2 3 0.00 0.00

Powered by AerisWeather